Regional Weather Roundup
Issued by NWS

Home | Current Version | Previous Version | Text Only | Print | Product List | Glossary Off
Versions: 1 2 3 4 5 6 7 8 9 10 11 12 13 14 15 16 17 18 19 20 21 22 23 24 25 26 27 28 29 30 31 32 33 34 35 36 37 38 39 40 41 42 43 44 45 46 47 48 49 50

000
ASUS45 KBOU 030707
RWRCO

WEATHER ROUNDUP FOR COLORADO
NATIONAL WEATHER SERVICE DENVER/BOULDER CO
100 AM MDT SUN MAY 03 2015

NOTE: "FAIR" INDICATES FEW OR NO CLOUDS BELOW 12000 FEET WITH NO
SIGNIFICANT WEATHER AND/OR OBSTRUCTIONS TO VISIBILITY.

COZ001>005-013-030-031-030800-
...NORTHWEST COLORADO...

CITY           SKY/WX    TMP DP  RH WIND       PRES   REMARKS
CRAIG          PTCLDY    46  39  76 NE9       30.04R
HAYDEN         PTCLDY    45  34  65 SE7       30.05R
MEEKER         CLOUDY    48  37  65 NE6       30.02S
MOUNT WERNER   NOT AVBL
STEAMBOAT SPGS PTCLDY    40  34  79 CALM      30.07S
WALDEN         CLOUDY    36  32  87 SE6       30.12S
$$

COZ006>008-011-030800-
...WEST CENTRAL VALLEYS...

CITY           SKY/WX    TMP DP  RH WIND       PRES   REMARKS
GRAND JUNCTION MOCLDY    63  35  35 E6        29.92R
MONTROSE       MOCLDY    66  24  20 S6        30.01R
EAGLE          PTCLDY    43  37  81 E8        30.11F
RIFLE          PTCLDY    51  37  58 SE8       30.02R
DELTA          MOCLDY    62  32  31 NE7       29.95S
NUCLA          MOCLDY    63  28  27 CALM      30.04R
$$

COZ017>023-064>068-030800-
...SOUTHWEST COLORADO...

CITY           SKY/WX    TMP DP  RH WIND       PRES   REMARKS
DURANGO        MOCLDY    45  35  68 NE5       30.11S
CORTEZ         CLEAR     49  33  54 E6        30.05S
PAGOSA SPRINGS MOCLDY    45  33  62 CALM      30.17S
TELLURIDE      PTCLDY    46  26  45 CALM      30.22S
WOLF CREEK PAS NOT AVBL
$$

COZ009-010-012-014-032>034-037-058>063-030800-
...CENTRAL COLORADO...

CITY           SKY/WX    TMP DP  RH WIND       PRES   REMARKS
ASPEN          MOCLDY    40  35  83 W8        30.13R
BUENA VISTA    NOT AVBL
COPPER MTN     CLEAR     37  23  56 SW10      30.31S
BERTHOUD PASS  FAIR      32  23  69 W18G33    30.32F WCI  20
COTTONWOOD PAS PTCLDY    41  34  75 W6        30.24S
GUNNISON       PTCLDY    43  28  56 N6        30.17S
KREMMLING      PTCLDY    37  32  81 E5        30.12S
LEADVILLE      CLEAR     31  28  89 E5        30.22S WCI  26
MONARCH PASS   MOCLDY    34  28  80 S7        30.43S WCI  28
SALIDA         PTCLDY    46  38  74 W7        30.23F
SUNLIGHT       PTCLDY    39  30  70 CALM      30.28F
WILKERSON PASS PTCLDY    34  30  86 SW8G20    30.30S WCI  27
$$

COZ069>075-030800-
...SAN LUIS VALLEY/SANGRE DE CRISTO MOUNTAINS...

CITY           SKY/WX    TMP DP  RH WIND       PRES   REMARKS
ALAMOSA        MOCLDY    39  36  89 E7        30.16S
LA VETA PASS   MOCLDY    39  32  75 MISG      30.25S
SAGUACHE       MOCLDY    41  34  75 N8        30.17F
$$

COZ035-036-038>040-030800-
...NORTHERN COLORADO FRONT RANGE...

CITY           SKY/WX    TMP DP  RH WIND       PRES   REMARKS
DENVER INTL AP MOCLDY    54  39  57 S14       29.96F
DMNS CITY PARK   N/A     54  39  56 SW3G9     29.96S
AURORA         MOCLDY    50  40  67 S7        29.98F
FRONT RANGE AP NOT AVBL
ERIE MUNI ARPT PTCLDY    49  41  72 SE5       29.95S
BOULDER MUN AP PTCLDY    57  34  41 S3        29.94F
CENTENNIAL     MOCLDY    50  39  66 S10       29.98F
BROOMFIELD     PTCLDY    52  37  58 W3        29.97S
FORT COLLINS   MOCLDY    52  39  62 S5        29.94S
LONGMONT       MOCLDY    52  38  59 NE3       29.96S
$$

COZ041-046-047-076>085-087-088-030800-
...PIKES PEAK/PALMER DIVIDE AND SOUTHERN FOOTHILLS...

CITY           SKY/WX    TMP DP  RH WIND       PRES   REMARKS
COLO. SPRINGS  MOCLDY    53  40  61 CALM      30.05S
A. F. ACADEMY  CLOUDY    49  39  70 N5        30.06R
ELLICOTT       MOCLDY   N/A N/A N/A SW7       30.03F
FALCON         CLOUDY    50  38  63 SW3       30.08R
FORT CARSON    MOCLDY    52  41  64 S6        30.01F
LIMON          PTCLDY    46  40  79 CALM      29.98F
MONUMENT HILL  MOCLDY    46  37  71 SW8       30.05S
TRINIDAD       MOCLDY    49  39  68 W12       30.03S
$$

COZ042>045-048>051-090-091-030800-
...NORTHEAST COLORADO...

CITY           SKY/WX    TMP DP  RH WIND       PRES   REMARKS
GREELEY ARPT   PTCLDY    52  37  58 CALM      29.93S
AKRON          PTCLDY    53  44  71 SW10      29.91F
BURLINGTON     CLOUDY    52  44  74 W12       29.89F
WRAY           MOCLDY    56  46  68 W8        29.86F
STERLING       PTCLDY    52  46  82 SW5       29.87F
HOLYOKE        NOT AVBL
FORT MORGAN    PTCLDY    51  14  22 CALM      29.92F
$$

COZ086-089-092>099-030800-
...SOUTHEAST COLORADO...

CITY           SKY/WX    TMP DP  RH WIND       PRES   REMARKS
PUEBLO         PTCLDY    52  44  74 NW7       29.98S
LA JUNTA       MOCLDY    56  44  64 MISG      29.94S
LAMAR          MOCLDY    56  49  77 W12       29.87S
SPRINGFIELD      N/A     52  44  74 SW12      29.94S
$$


USA.gov is the U.S. government's official web portal to all federal, state and local government web resources and services.